Year,Month,Day,Hour,Minute,Value (Times are PST for temperature in C)
2006,07,18,00,00,13.20
2006,07,18,00,01,13.20
2006,07,18,00,02,13.20
2006,07,18,00,03,13.20
2006,07,18,00,04,13.20
2006,07,18,00,05,13.20
2006,07,18,00,06,13.10
2006,07,18,00,07,13.10
2006,07,18,00,08,13.10
2006,07,18,00,09,13.10
2006,07,18,00,10,13.10
2006,07,18,00,11,13.10
2006,07,18,00,12,13.10
2006,07,18,00,13,13.10
2006,07,18,00,14,13.10
2006,07,18,00,15,13.10
2006,07,18,00,16,13.10
2006,07,18,00,17,13.10
2006,07,18,00,18,13.10
2006,07,18,00,19,13.00
2006,07,18,00,20,13.00
2006,07,18,00,21,13.00
2006,07,18,00,22,13.00
2006,07,18,00,23,13.00
2006,07,18,00,24,13.00
2006,07,18,00,25,13.00
2006,07,18,00,26,13.00
2006,07,18,00,27,13.00
2006,07,18,00,28,13.00
2006,07,18,00,29,13.00
2006,07,18,00,30,13.00
2006,07,18,00,31,13.00
2006,07,18,00,32,13.00
2006,07,18,00,33,13.00
2006,07,18,00,34,13.00
2006,07,18,00,35,13.00
2006,07,18,00,36,13.00
2006,07,18,00,37,13.00
2006,07,18,00,38,13.00
2006,07,18,00,39,13.00
2006,07,18,00,40,13.00
2006,07,18,00,41,13.00
2006,07,18,00,42,12.90
2006,07,18,00,43,12.90
2006,07,18,00,44,12.90
2006,07,18,00,45,12.90
2006,07,18,00,46,12.90
2006,07,18,00,47,12.90
2006,07,18,00,48,12.90
2006,07,18,00,49,12.90
2006,07,18,00,50,12.90
2006,07,18,00,51,12.90
2006,07,18,00,52,12.90
2006,07,18,00,53,12.90
2006,07,18,00,54,12.90
2006,07,18,00,55,12.90
2006,07,18,00,56,12.80
2006,07,18,00,57,12.80
2006,07,18,00,58,12.80
2006,07,18,00,59,12.80
2006,07,18,01,00,12.80
2006,07,18,01,01,12.80
2006,07,18,01,02,12.80
2006,07,18,01,03,12.80
2006,07,18,01,04,12.80
2006,07,18,01,05,12.80
2006,07,18,01,06,12.80
2006,07,18,01,07,12.80
2006,07,18,01,08,12.80
2006,07,18,01,09,12.80
2006,07,18,01,10,12.80
2006,07,18,01,11,12.80
2006,07,18,01,12,12.80
2006,07,18,01,13,12.80
2006,07,18,01,14,12.80
2006,07,18,01,15,12.80
2006,07,18,01,16,12.80
2006,07,18,01,17,12.80
2006,07,18,01,18,12.80
2006,07,18,01,19,12.80
2006,07,18,01,20,12.80
2006,07,18,01,21,12.80
2006,07,18,01,22,12.80
2006,07,18,01,23,12.80
2006,07,18,01,24,12.80
2006,07,18,01,25,12.80
2006,07,18,01,26,12.80
2006,07,18,01,27,12.80
2006,07,18,01,28,12.80
2006,07,18,01,29,12.80
2006,07,18,01,30,12.80
2006,07,18,01,31,12.80
2006,07,18,01,32,12.80
2006,07,18,01,33,12.80
2006,07,18,01,34,12.80
2006,07,18,01,35,12.70
2006,07,18,01,36,12.70
2006,07,18,01,37,12.70
2006,07,18,01,38,12.70
2006,07,18,01,39,12.70
2006,07,18,01,40,12.70
2006,07,18,01,41,12.70
2006,07,18,01,42,12.70
2006,07,18,01,43,12.60
2006,07,18,01,44,12.60
2006,07,18,01,45,12.60
2006,07,18,01,46,12.60
2006,07,18,01,47,12.60
2006,07,18,01,48,12.60
2006,07,18,01,49,12.60
2006,07,18,01,50,12.60
2006,07,18,01,51,12.60
2006,07,18,01,52,12.60
2006,07,18,01,53,12.60
2006,07,18,01,54,12.60
2006,07,18,01,55,12.60
2006,07,18,01,56,12.60
2006,07,18,01,57,12.60
2006,07,18,01,58,12.60
2006,07,18,01,59,12.60
2006,07,18,02,00,12.60
2006,07,18,02,01,12.60
2006,07,18,02,02,12.60
2006,07,18,02,03,12.60
2006,07,18,02,04,12.60
2006,07,18,02,05,12.60
2006,07,18,02,06,12.60
2006,07,18,02,07,12.60
2006,07,18,02,08,12.50
2006,07,18,02,09,12.50
2006,07,18,02,10,12.50
2006,07,18,02,11,12.50
2006,07,18,02,12,12.50
2006,07,18,02,13,12.50
2006,07,18,02,14,12.50
2006,07,18,02,15,12.50
2006,07,18,02,16,12.50
2006,07,18,02,17,12.50
2006,07,18,02,18,12.50
2006,07,18,02,19,12.50
2006,07,18,02,20,12.50
2006,07,18,02,21,12.50
2006,07,18,02,22,12.50
2006,07,18,02,23,12.50
2006,07,18,02,24,12.50
2006,07,18,02,25,12.50
2006,07,18,02,26,12.50
2006,07,18,02,27,12.50
2006,07,18,02,28,12.50
2006,07,18,02,29,12.50
2006,07,18,02,30,12.50
2006,07,18,02,31,12.50
2006,07,18,02,32,12.50
2006,07,18,02,33,12.50
2006,07,18,02,34,12.50
2006,07,18,02,35,12.50
2006,07,18,02,36,12.50
2006,07,18,02,37,12.40
2006,07,18,02,38,12.40
2006,07,18,02,39,12.40
2006,07,18,02,40,12.40
2006,07,18,02,41,12.40
2006,07,18,02,42,12.40
2006,07,18,02,43,12.40
2006,07,18,02,44,12.40
2006,07,18,02,45,12.30
2006,07,18,02,46,12.30
2006,07,18,02,47,12.30
2006,07,18,02,48,12.30
2006,07,18,02,49,12.30
2006,07,18,02,50,12.30
2006,07,18,02,51,12.20
2006,07,18,02,52,12.20
2006,07,18,02,53,12.20
2006,07,18,02,54,12.10
2006,07,18,02,55,12.10
2006,07,18,02,56,12.10
2006,07,18,02,57,12.00
2006,07,18,02,58,12.00
2006,07,18,02,59,12.00
2006,07,18,03,00,12.00
2006,07,18,03,01,12.00
2006,07,18,03,02,11.90
2006,07,18,03,03,11.90
2006,07,18,03,04,11.90
2006,07,18,03,05,11.90
2006,07,18,03,06,11.90
2006,07,18,03,07,11.90
2006,07,18,03,08,11.90
2006,07,18,03,09,11.90
2006,07,18,03,10,11.90
2006,07,18,03,11,11.90
2006,07,18,03,12,11.90
2006,07,18,03,13,11.90
2006,07,18,03,14,11.90
2006,07,18,03,15,11.90
2006,07,18,03,16,11.90
2006,07,18,03,17,11.90
2006,07,18,03,18,11.90
2006,07,18,03,19,11.90
2006,07,18,03,20,11.90
2006,07,18,03,21,11.90
2006,07,18,03,22,11.90
2006,07,18,03,23,11.90
2006,07,18,03,24,11.90
2006,07,18,03,25,11.90
2006,07,18,03,26,11.90
2006,07,18,03,27,11.90
2006,07,18,03,28,11.90
2006,07,18,03,29,11.90
2006,07,18,03,30,11.90
2006,07,18,03,31,11.90
2006,07,18,03,32,11.90
2006,07,18,03,33,11.90
2006,07,18,03,34,11.90
2006,07,18,03,35,11.90
2006,07,18,03,36,11.90
2006,07,18,03,37,11.90
2006,07,18,03,38,11.90
2006,07,18,03,39,11.90
2006,07,18,03,40,11.90
2006,07,18,03,41,11.90
2006,07,18,03,42,11.90
2006,07,18,03,43,11.90
2006,07,18,03,44,11.90
2006,07,18,03,45,11.90
2006,07,18,03,46,11.90
2006,07,18,03,47,11.90
2006,07,18,03,48,11.90
2006,07,18,03,49,11.90
2006,07,18,03,50,11.90
2006,07,18,03,51,11.90
2006,07,18,03,52,12.00
2006,07,18,03,53,12.00
2006,07,18,03,54,12.00
2006,07,18,03,55,12.00
2006,07,18,03,56,12.00
2006,07,18,03,57,12.00
2006,07,18,03,58,12.10
2006,07,18,03,59,12.10
2006,07,18,04,00,12.10
2006,07,18,04,01,12.10
2006,07,18,04,02,12.10
2006,07,18,04,03,12.10
2006,07,18,04,04,12.10
2006,07,18,04,05,12.10
2006,07,18,04,06,12.10
2006,07,18,04,07,12.20
2006,07,18,04,08,12.20
2006,07,18,04,09,12.20
2006,07,18,04,10,12.20
2006,07,18,04,11,12.20
2006,07,18,04,12,12.20
2006,07,18,04,13,12.20
2006,07,18,04,14,12.20
2006,07,18,04,15,12.20
2006,07,18,04,16,12.20
2006,07,18,04,17,12.20
2006,07,18,04,18,12.20
2006,07,18,04,19,12.20
2006,07,18,04,20,12.20
2006,07,18,04,21,12.20
2006,07,18,04,22,12.20
2006,07,18,04,23,12.20
2006,07,18,04,24,12.10
2006,07,18,04,25,12.10
2006,07,18,04,26,12.10
2006,07,18,04,27,12.10
2006,07,18,04,28,12.10
2006,07,18,04,29,12.10
2006,07,18,04,30,12.10
2006,07,18,04,31,12.10
2006,07,18,04,32,12.10
2006,07,18,04,33,12.10
2006,07,18,04,34,12.10
2006,07,18,04,35,12.10
2006,07,18,04,36,12.10
2006,07,18,04,37,12.10
2006,07,18,04,38,12.00
2006,07,18,04,39,12.00
2006,07,18,04,40,12.00
2006,07,18,04,41,12.00
2006,07,18,04,42,12.00
2006,07,18,04,43,12.00
2006,07,18,04,44,12.00
2006,07,18,04,45,12.00
2006,07,18,04,46,11.90
2006,07,18,04,47,11.90
2006,07,18,04,48,11.90
2006,07,18,04,49,11.90
2006,07,18,04,50,11.90
2006,07,18,04,51,11.80
2006,07,18,04,52,11.80
2006,07,18,04,53,11.80
2006,07,18,04,54,11.80
2006,07,18,04,55,11.80
2006,07,18,04,56,11.80
2006,07,18,04,57,11.80
2006,07,18,04,58,11.80
2006,07,18,04,59,11.80
2006,07,18,05,00,11.80
2006,07,18,05,01,11.80
2006,07,18,05,02,11.80
2006,07,18,05,03,11.80
2006,07,18,05,04,11.80
2006,07,18,05,05,11.80
2006,07,18,05,06,11.80
2006,07,18,05,07,11.80
2006,07,18,05,08,11.80
2006,07,18,05,09,11.80
2006,07,18,05,10,11.80
2006,07,18,05,11,11.80
2006,07,18,05,12,11.70
2006,07,18,05,13,11.70
2006,07,18,05,14,11.70
2006,07,18,05,15,11.70
2006,07,18,05,16,11.70
2006,07,18,05,17,11.70
2006,07,18,05,18,11.70
2006,07,18,05,19,11.60
2006,07,18,05,20,11.60
2006,07,18,05,21,11.60
2006,07,18,05,22,11.60
2006,07,18,05,23,11.60
2006,07,18,05,24,11.60
2006,07,18,05,25,11.60
2006,07,18,05,26,11.60
2006,07,18,05,27,11.60
2006,07,18,05,28,11.50
2006,07,18,05,29,11.40
2006,07,18,05,30,11.40
2006,07,18,05,31,11.40
2006,07,18,05,32,11.40
2006,07,18,05,33,11.40
2006,07,18,05,34,11.40
2006,07,18,05,35,11.40
2006,07,18,05,36,11.30
2006,07,18,05,37,11.30
2006,07,18,05,38,11.30
2006,07,18,05,39,11.30
2006,07,18,05,40,11.20
2006,07,18,05,41,11.20
2006,07,18,05,42,11.20
2006,07,18,05,43,11.20
2006,07,18,05,44,11.20
2006,07,18,05,45,11.10
2006,07,18,05,46,11.10
2006,07,18,05,47,11.10
2006,07,18,05,48,11.10
2006,07,18,05,49,11.10
2006,07,18,05,50,11.10
2006,07,18,05,51,11.10
2006,07,18,05,52,11.10
2006,07,18,05,53,11.10
2006,07,18,05,54,11.00
2006,07,18,05,55,10.90
2006,07,18,05,56,10.90
2006,07,18,05,57,10.90
2006,07,18,05,58,10.90
2006,07,18,05,59,10.90
2006,07,18,06,00,10.90
2006,07,18,06,01,10.90
2006,07,18,06,02,10.90
2006,07,18,06,03,10.90
2006,07,18,06,04,10.90
2006,07,18,06,05,11.00
2006,07,18,06,06,11.10
2006,07,18,06,07,11.10
2006,07,18,06,08,11.10
2006,07,18,06,09,11.10
2006,07,18,06,10,11.10
2006,07,18,06,11,11.10
2006,07,18,06,12,11.10
2006,07,18,06,13,11.10
2006,07,18,06,14,11.10
2006,07,18,06,15,11.10
2006,07,18,06,16,11.10
2006,07,18,06,17,11.10
2006,07,18,06,18,11.10
2006,07,18,06,19,11.10
2006,07,18,06,20,11.10
2006,07,18,06,21,11.20
2006,07,18,06,22,11.20
2006,07,18,06,23,11.20
2006,07,18,06,24,11.20
2006,07,18,06,25,11.30
2006,07,18,06,26,11.30
2006,07,18,06,27,11.30
2006,07,18,06,28,11.30
2006,07,18,06,29,11.30
2006,07,18,06,30,11.40
2006,07,18,06,31,11.40
2006,07,18,06,32,11.40
2006,07,18,06,33,11.40
2006,07,18,06,34,11.40
2006,07,18,06,35,11.40
2006,07,18,06,36,11.40
2006,07,18,06,37,11.50
2006,07,18,06,38,11.60
2006,07,18,06,39,11.60
2006,07,18,06,40,11.60
2006,07,18,06,41,11.70
2006,07,18,06,42,11.80
2006,07,18,06,43,11.80
2006,07,18,06,44,11.80
2006,07,18,06,45,11.80
2006,07,18,06,46,11.80
2006,07,18,06,47,11.90
2006,07,18,06,48,11.90
2006,07,18,06,49,11.90
2006,07,18,06,50,12.00
2006,07,18,06,51,12.00
2006,07,18,06,52,12.00
2006,07,18,06,53,12.10
2006,07,18,06,54,12.10
2006,07,18,06,55,12.10
2006,07,18,06,56,12.10
2006,07,18,06,57,12.10
2006,07,18,06,58,12.20
2006,07,18,06,59,12.20
2006,07,18,07,00,12.20
2006,07,18,07,01,12.20
2006,07,18,07,02,12.30
2006,07,18,07,03,12.30
2006,07,18,07,04,12.30
2006,07,18,07,05,12.30
2006,07,18,07,06,12.30
2006,07,18,07,07,12.30
2006,07,18,07,08,12.40
2006,07,18,07,09,12.40
2006,07,18,07,10,12.40
2006,07,18,07,11,12.50
2006,07,18,07,12,12.50
2006,07,18,07,13,12.60
2006,07,18,07,14,12.60
2006,07,18,07,15,12.70
2006,07,18,07,16,12.70
2006,07,18,07,17,12.70
2006,07,18,07,18,12.80
2006,07,18,07,19,12.80
2006,07,18,07,20,12.80
2006,07,18,07,21,12.80
2006,07,18,07,22,12.80
2006,07,18,07,23,12.80
2006,07,18,07,24,12.80
2006,07,18,07,25,12.80
2006,07,18,07,26,12.90
2006,07,18,07,27,12.90
2006,07,18,07,28,12.90
2006,07,18,07,29,13.00
2006,07,18,07,30,13.00
2006,07,18,07,31,13.10
2006,07,18,07,32,13.10
2006,07,18,07,33,13.20
2006,07,18,07,34,13.20
2006,07,18,07,35,13.30
2006,07,18,07,36,13.30
2006,07,18,07,37,13.30
2006,07,18,07,38,13.30
2006,07,18,07,39,13.30
2006,07,18,07,40,13.30
2006,07,18,07,41,13.40
2006,07,18,07,42,13.40
2006,07,18,07,43,13.40
2006,07,18,07,44,13.50
2006,07,18,07,45,13.50
2006,07,18,07,46,13.60
2006,07,18,07,47,13.60
2006,07,18,07,48,13.60
2006,07,18,07,49,13.70
2006,07,18,07,50,13.70
2006,07,18,07,51,13.70
2006,07,18,07,52,13.70
2006,07,18,07,53,13.80
2006,07,18,07,54,13.80
2006,07,18,07,55,13.80
2006,07,18,07,56,13.90
2006,07,18,07,57,13.90
2006,07,18,07,58,13.90
2006,07,18,07,59,14.00
2006,07,18,08,00,14.00
2006,07,18,08,01,14.00
2006,07,18,08,02,14.00
2006,07,18,08,03,14.10
2006,07,18,08,04,14.10
2006,07,18,08,05,14.20
2006,07,18,08,06,14.20
2006,07,18,08,07,14.20
2006,07,18,08,08,14.20
2006,07,18,08,09,14.20
2006,07,18,08,10,14.20
2006,07,18,08,11,14.30
2006,07,18,08,12,14.30
2006,07,18,08,13,14.40
2006,07,18,08,14,14.40
2006,07,18,08,15,14.50
2006,07,18,08,16,14.50
2006,07,18,08,17,14.50
2006,07,18,08,18,14.60
2006,07,18,08,19,14.60
2006,07,18,08,20,14.70
2006,07,18,08,21,14.70
2006,07,18,08,22,14.80
2006,07,18,08,23,14.80
2006,07,18,08,24,14.80
2006,07,18,08,25,14.80
2006,07,18,08,26,14.80
2006,07,18,08,27,14.90
2006,07,18,08,28,14.90
2006,07,18,08,29,15.00
2006,07,18,08,30,15.00
2006,07,18,08,31,15.10
2006,07,18,08,32,15.20
2006,07,18,08,33,15.20
2006,07,18,08,34,15.30
2006,07,18,08,35,15.30
2006,07,18,08,36,15.30
2006,07,18,08,37,15.30
2006,07,18,08,38,15.40
2006,07,18,08,39,15.40
2006,07,18,08,40,15.50
2006,07,18,08,41,15.50
2006,07,18,08,42,15.60
2006,07,18,08,43,15.70
2006,07,18,08,44,15.70
2006,07,18,08,45,15.80
2006,07,18,08,46,15.80
2006,07,18,08,47,15.80
2006,07,18,08,48,15.90
2006,07,18,08,49,15.90
2006,07,18,08,50,15.90
2006,07,18,08,51,16.00
2006,07,18,08,52,16.10
2006,07,18,08,53,16.10
2006,07,18,08,54,16.10
2006,07,18,08,55,16.20
2006,07,18,08,56,16.20
2006,07,18,08,57,16.30
2006,07,18,08,58,16.30
2006,07,18,08,59,16.40
2006,07,18,09,00,16.40
2006,07,18,09,01,16.50
2006,07,18,09,02,16.60
2006,07,18,09,03,16.60
2006,07,18,09,04,16.60
2006,07,18,09,05,16.70
2006,07,18,09,06,16.70
2006,07,18,09,07,16.70
2006,07,18,09,08,16.70
2006,07,18,09,09,16.80
2006,07,18,09,10,16.90
2006,07,18,09,11,16.90
2006,07,18,09,12,17.00
2006,07,18,09,13,17.10
2006,07,18,09,14,17.10
2006,07,18,09,15,17.20
2006,07,18,09,16,17.30
2006,07,18,09,17,17.30
2006,07,18,09,18,17.40
2006,07,18,09,19,17.50
2006,07,18,09,20,17.50
2006,07,18,09,21,17.60
2006,07,18,09,22,17.70
2006,07,18,09,23,17.70
2006,07,18,09,24,17.80
2006,07,18,09,25,17.80
2006,07,18,09,26,17.90
2006,07,18,09,27,18.00
2006,07,18,09,28,18.10
2006,07,18,09,29,18.10
2006,07,18,09,30,18.10
2006,07,18,09,31,18.20
2006,07,18,09,32,18.10
2006,07,18,09,33,18.10
2006,07,18,09,34,18.10
2006,07,18,09,35,18.10
2006,07,18,09,36,18.10
2006,07,18,09,37,18.20
2006,07,18,09,38,18.20
2006,07,18,09,39,18.20
2006,07,18,09,40,18.30
2006,07,18,09,41,18.40
2006,07,18,09,42,18.50
2006,07,18,09,43,18.50
2006,07,18,09,44,18.50
2006,07,18,09,45,18.50
2006,07,18,09,46,18.60
2006,07,18,09,47,18.60
2006,07,18,09,48,18.60
2006,07,18,09,49,18.60
2006,07,18,09,50,18.60
2006,07,18,09,51,18.70
2006,07,18,09,52,18.80
2006,07,18,09,53,18.90
2006,07,18,09,54,19.00
2006,07,18,09,55,19.10
2006,07,18,09,56,19.10
2006,07,18,09,57,19.00
2006,07,18,09,58,18.90
2006,07,18,09,59,18.90
2006,07,18,10,00,18.90
2006,07,18,10,01,18.90
2006,07,18,10,02,18.90
2006,07,18,10,03,18.90
2006,07,18,10,04,18.90
2006,07,18,10,05,18.90
2006,07,18,10,06,18.90
2006,07,18,10,07,18.90
2006,07,18,10,08,18.90
2006,07,18,10,09,18.90
2006,07,18,10,10,18.90
2006,07,18,10,11,18.90
2006,07,18,10,12,18.90
2006,07,18,10,13,18.90
2006,07,18,10,14,18.90
2006,07,18,10,15,18.80
2006,07,18,10,16,18.80
2006,07,18,10,17,18.80
2006,07,18,10,18,18.90
2006,07,18,10,19,18.90
2006,07,18,10,20,18.90
2006,07,18,10,21,19.00
2006,07,18,10,22,19.10
2006,07,18,10,23,19.20
2006,07,18,10,24,19.30
2006,07,18,10,25,19.40
2006,07,18,10,26,19.40
2006,07,18,10,27,19.40
2006,07,18,10,28,19.50
2006,07,18,10,29,19.50
2006,07,18,10,30,19.40
2006,07,18,10,31,19.30
2006,07,18,10,32,19.30
2006,07,18,10,33,19.20
2006,07,18,10,34,19.20
2006,07,18,10,35,19.20
2006,07,18,10,36,19.20
2006,07,18,10,37,19.20
2006,07,18,10,38,19.30
2006,07,18,10,39,19.30
2006,07,18,10,40,19.30
2006,07,18,10,41,19.20
2006,07,18,10,42,19.10
2006,07,18,10,43,19.10
2006,07,18,10,44,19.00
2006,07,18,10,45,19.00
2006,07,18,10,46,19.10
2006,07,18,10,47,19.10
2006,07,18,10,48,19.30
2006,07,18,10,49,19.30
2006,07,18,10,50,19.30
2006,07,18,10,51,19.20
2006,07,18,10,52,19.20
2006,07,18,10,53,19.20
2006,07,18,10,54,19.20
2006,07,18,10,55,19.20
2006,07,18,10,56,19.30
2006,07,18,10,57,19.30
2006,07,18,10,58,19.30
2006,07,18,10,59,19.30
2006,07,18,11,00,19.10
2006,07,18,11,01,19.10
2006,07,18,11,02,19.10
2006,07,18,11,03,19.10
2006,07,18,11,04,19.10
2006,07,18,11,05,19.10
2006,07,18,11,06,19.20
2006,07,18,11,07,19.30
2006,07,18,11,08,19.30
2006,07,18,11,09,19.40
2006,07,18,11,10,19.50
2006,07,18,11,11,19.50
2006,07,18,11,12,19.50
2006,07,18,11,13,19.50
2006,07,18,11,14,19.60
2006,07,18,11,15,19.60
2006,07,18,11,16,19.60
2006,07,18,11,17,19.70
2006,07,18,11,18,19.80
2006,07,18,11,19,19.90
2006,07,18,11,20,20.10
2006,07,18,11,21,20.20
2006,07,18,11,22,20.20
2006,07,18,11,23,20.30
2006,07,18,11,24,20.30
2006,07,18,11,25,20.30
2006,07,18,11,26,20.40
2006,07,18,11,27,20.40
2006,07,18,11,28,20.40
2006,07,18,11,29,20.40
2006,07,18,11,30,20.50
2006,07,18,11,31,20.40
2006,07,18,11,32,20.40
2006,07,18,11,33,20.30
2006,07,18,11,34,20.20
2006,07,18,11,35,20.20
2006,07,18,11,36,20.20
2006,07,18,11,37,20.10
2006,07,18,11,38,20.10
2006,07,18,11,39,20.10
2006,07,18,11,40,20.00
2006,07,18,11,41,19.90
2006,07,18,11,42,19.90
2006,07,18,11,43,19.80
2006,07,18,11,44,19.80
2006,07,18,11,45,19.80
2006,07,18,11,46,19.90
2006,07,18,11,47,19.80
2006,07,18,11,48,19.80
2006,07,18,11,49,19.80
2006,07,18,11,50,19.80
2006,07,18,11,51,19.70
2006,07,18,11,52,19.70
2006,07,18,11,53,19.60
2006,07,18,11,54,19.60
2006,07,18,11,55,19.60
2006,07,18,11,56,19.50
2006,07,18,11,57,19.50
2006,07,18,11,58,19.50
2006,07,18,11,59,19.40
2006,07,18,12,00,19.40
2006,07,18,12,01,19.40
2006,07,18,12,02,19.40
2006,07,18,12,03,19.40
2006,07,18,12,04,19.50
2006,07,18,12,05,19.50
2006,07,18,12,06,19.60
2006,07,18,12,07,19.60
2006,07,18,12,08,19.60
2006,07,18,12,09,19.60
2006,07,18,12,10,19.70
2006,07,18,12,11,19.60
2006,07,18,12,12,19.70
2006,07,18,12,13,19.70
2006,07,18,12,14,19.80
2006,07,18,12,15,19.80
2006,07,18,12,16,19.80
2006,07,18,12,17,19.90
2006,07,18,12,18,19.90
2006,07,18,12,19,19.90
2006,07,18,12,20,19.90
2006,07,18,12,21,19.80
2006,07,18,12,22,19.80
2006,07,18,12,23,19.80
2006,07,18,12,24,19.70
2006,07,18,12,25,19.60
2006,07,18,12,26,19.50
2006,07,18,12,27,19.40
2006,07,18,12,28,19.30
2006,07,18,12,29,19.30
2006,07,18,12,30,19.30
2006,07,18,12,31,19.30
2006,07,18,12,32,19.40
2006,07,18,12,33,19.40
2006,07,18,12,34,19.50
2006,07,18,12,35,19.60
2006,07,18,12,36,19.60
2006,07,18,12,37,19.60
2006,07,18,12,38,19.70
2006,07,18,12,39,19.70
2006,07,18,12,40,19.60
2006,07,18,12,41,19.60
2006,07,18,12,42,19.50
2006,07,18,12,43,19.50
2006,07,18,12,44,19.50
2006,07,18,12,45,19.40
2006,07,18,12,46,19.40
2006,07,18,12,47,19.30
2006,07,18,12,48,19.30
2006,07,18,12,49,19.30
2006,07,18,12,50,19.30
2006,07,18,12,51,19.10
2006,07,18,12,52,19.00
2006,07,18,12,53,18.90
2006,07,18,12,54,18.80
2006,07,18,12,55,18.80
2006,07,18,12,56,18.90
2006,07,18,12,57,18.90
2006,07,18,12,58,19.00
2006,07,18,12,59,19.10
2006,07,18,13,00,19.10
2006,07,18,13,01,19.20
2006,07,18,13,02,19.30
2006,07,18,13,03,19.40
2006,07,18,13,04,19.40
2006,07,18,13,05,19.50
2006,07,18,13,06,19.50
2006,07,18,13,07,19.50
2006,07,18,13,08,19.40
2006,07,18,13,09,19.30
2006,07,18,13,10,19.20
2006,07,18,13,11,19.10
2006,07,18,13,12,19.10
2006,07,18,13,13,19.10
2006,07,18,13,14,19.10
2006,07,18,13,15,19.20
2006,07,18,13,16,19.20
2006,07,18,13,17,19.30
2006,07,18,13,18,19.30
2006,07,18,13,19,19.20
2006,07,18,13,20,19.20
2006,07,18,13,21,19.20
2006,07,18,13,22,19.20
2006,07,18,13,23,19.20
2006,07,18,13,24,19.10
2006,07,18,13,25,19.20
2006,07,18,13,26,19.20
2006,07,18,13,27,19.10
2006,07,18,13,28,19.30
2006,07,18,13,29,19.30
2006,07,18,13,30,19.40
2006,07,18,13,31,19.50
2006,07,18,13,32,19.50
2006,07,18,13,33,19.30
2006,07,18,13,34,19.10
2006,07,18,13,35,19.00
2006,07,18,13,36,18.90
2006,07,18,13,37,18.90
2006,07,18,13,38,18.90
2006,07,18,13,39,19.00
2006,07,18,13,40,19.10
2006,07,18,13,41,19.10
2006,07,18,13,42,19.00
2006,07,18,13,43,18.90
2006,07,18,13,44,18.90
2006,07,18,13,45,18.90
2006,07,18,13,46,18.90
2006,07,18,13,47,18.90
2006,07,18,13,48,18.90
2006,07,18,13,49,19.00
2006,07,18,13,50,19.10
2006,07,18,13,51,19.20
2006,07,18,13,52,19.30
2006,07,18,13,53,19.40
2006,07,18,13,54,19.40
2006,07,18,13,55,19.40
2006,07,18,13,56,19.40
2006,07,18,13,57,19.50
2006,07,18,13,58,19.40
2006,07,18,13,59,19.40
2006,07,18,14,00,19.40
2006,07,18,14,01,19.30
2006,07,18,14,02,19.20
2006,07,18,14,03,19.20
2006,07,18,14,04,19.10
2006,07,18,14,05,19.10
2006,07,18,14,06,19.00
2006,07,18,14,07,18.90
2006,07,18,14,08,18.80
2006,07,18,14,09,18.70
2006,07,18,14,10,18.70
2006,07,18,14,11,18.60
2006,07,18,14,12,18.60
2006,07,18,14,13,18.60
2006,07,18,14,14,18.60
2006,07,18,14,15,18.60
2006,07,18,14,16,18.60
2006,07,18,14,17,18.60
2006,07,18,14,18,18.70
2006,07,18,14,19,18.70
2006,07,18,14,20,18.90
2006,07,18,14,21,18.90
2006,07,18,14,22,18.90
2006,07,18,14,23,18.90
2006,07,18,14,24,19.00
2006,07,18,14,25,19.10
2006,07,18,14,26,19.10
2006,07,18,14,27,19.10
2006,07,18,14,28,19.10
2006,07,18,14,29,19.10
2006,07,18,14,30,19.10
2006,07,18,14,31,19.10
2006,07,18,14,32,19.20
2006,07,18,14,33,19.20
2006,07,18,14,34,19.30
2006,07,18,14,35,19.30
2006,07,18,14,36,19.40
2006,07,18,14,37,19.40
2006,07,18,14,38,19.50
2006,07,18,14,39,19.50
2006,07,18,14,40,19.60
2006,07,18,14,41,19.60
2006,07,18,14,42,19.70
2006,07,18,14,43,19.80
2006,07,18,14,44,19.80
2006,07,18,14,45,19.80
2006,07,18,14,46,19.80
2006,07,18,14,47,19.90
2006,07,18,14,48,19.90
2006,07,18,14,49,19.90
2006,07,18,14,50,19.90
2006,07,18,14,51,19.80
2006,07,18,14,52,19.80
2006,07,18,14,53,19.80
2006,07,18,14,54,19.70
2006,07,18,14,55,19.70
2006,07,18,14,56,19.80
2006,07,18,14,57,19.80
2006,07,18,14,58,19.80
2006,07,18,14,59,19.80
2006,07,18,15,00,19.90
2006,07,18,15,01,19.90
2006,07,18,15,02,19.90
2006,07,18,15,03,19.90
2006,07,18,15,04,19.90
2006,07,18,15,05,19.90
2006,07,18,15,06,19.90
2006,07,18,15,07,19.90
2006,07,18,15,08,19.90
2006,07,18,15,09,19.90
2006,07,18,15,10,19.90
2006,07,18,15,11,19.90
2006,07,18,15,12,19.90
2006,07,18,15,13,20.00
2006,07,18,15,14,20.10
2006,07,18,15,15,20.10
2006,07,18,15,16,20.00
2006,07,18,15,17,20.00
2006,07,18,15,18,20.10
2006,07,18,15,19,20.20
2006,07,18,15,20,20.20
2006,07,18,15,21,20.30
2006,07,18,15,22,20.40
2006,07,18,15,23,20.50
2006,07,18,15,24,20.60
2006,07,18,15,25,20.70
2006,07,18,15,26,20.80
2006,07,18,15,27,20.80
2006,07,18,15,28,20.90
2006,07,18,15,29,20.90
2006,07,18,15,30,21.00
2006,07,18,15,31,21.10
2006,07,18,15,32,21.20
2006,07,18,15,33,21.30
2006,07,18,15,34,21.40
2006,07,18,15,35,21.40
2006,07,18,15,36,21.50
2006,07,18,15,37,21.60
2006,07,18,15,38,21.50
2006,07,18,15,39,21.40
2006,07,18,15,40,21.30
2006,07,18,15,41,21.30
2006,07,18,15,42,21.30
2006,07,18,15,43,21.40
2006,07,18,15,44,21.40
2006,07,18,15,45,21.40
2006,07,18,15,46,21.30
2006,07,18,15,47,21.20
2006,07,18,15,48,21.20
2006,07,18,15,49,21.20
2006,07,18,15,50,21.20
2006,07,18,15,51,21.20
2006,07,18,15,52,21.20
2006,07,18,15,53,21.30
2006,07,18,15,54,21.30
2006,07,18,15,55,21.30
2006,07,18,15,56,21.20
2006,07,18,15,57,21.20
2006,07,18,15,58,21.30
2006,07,18,15,59,21.40
2006,07,18,16,00,21.50
2006,07,18,16,01,21.60
2006,07,18,16,02,21.60
2006,07,18,16,03,21.70
2006,07,18,16,04,21.70
2006,07,18,16,05,21.60
2006,07,18,16,06,21.60
2006,07,18,16,07,21.50
2006,07,18,16,08,21.40
2006,07,18,16,09,21.40
2006,07,18,16,10,21.30
2006,07,18,16,11,21.30
2006,07,18,16,12,21.30
2006,07,18,16,13,21.30
2006,07,18,16,14,21.30
2006,07,18,16,15,21.30
2006,07,18,16,16,21.30
2006,07,18,16,17,21.30
2006,07,18,16,18,21.30
2006,07,18,16,19,21.40
2006,07,18,16,20,21.50
2006,07,18,16,21,21.60
2006,07,18,16,22,21.60
2006,07,18,16,23,21.60
2006,07,18,16,24,21.60
2006,07,18,16,25,21.60
2006,07,18,16,26,21.60
2006,07,18,16,27,21.50
2006,07,18,16,28,21.40
2006,07,18,16,29,21.40
2006,07,18,16,30,21.30
2006,07,18,16,31,21.30
2006,07,18,16,32,21.30
2006,07,18,16,33,21.20
2006,07,18,16,34,21.20
2006,07,18,16,35,21.20
2006,07,18,16,36,21.20
2006,07,18,16,37,21.30
2006,07,18,16,38,21.30
2006,07,18,16,39,21.50
2006,07,18,16,40,21.60
2006,07,18,16,41,21.70
2006,07,18,16,42,21.90
2006,07,18,16,43,21.90
2006,07,18,16,44,21.90
2006,07,18,16,45,21.90
2006,07,18,16,46,21.90
2006,07,18,16,47,21.80
2006,07,18,16,48,21.70
2006,07,18,16,49,21.60
2006,07,18,16,50,21.60
2006,07,18,16,51,21.60
2006,07,18,16,52,21.70
2006,07,18,16,53,21.80
2006,07,18,16,54,21.90
2006,07,18,16,55,21.90
2006,07,18,16,56,22.00
2006,07,18,16,57,22.00
2006,07,18,16,58,22.00
2006,07,18,16,59,21.90
2006,07,18,17,00,21.90
2006,07,18,17,01,21.80
2006,07,18,17,02,21.80
2006,07,18,17,03,21.80
2006,07,18,17,04,21.80
2006,07,18,17,05,21.80
2006,07,18,17,06,21.70
2006,07,18,17,07,21.70
2006,07,18,17,08,21.70
2006,07,18,17,09,21.70
2006,07,18,17,10,21.60
2006,07,18,17,11,21.60
2006,07,18,17,12,21.60
2006,07,18,17,13,21.60
2006,07,18,17,14,21.60
2006,07,18,17,15,21.60
2006,07,18,17,16,21.60
2006,07,18,17,17,21.60
2006,07,18,17,18,21.70
2006,07,18,17,19,21.60